Weather History for PAOM - April, 2013

Change the Weather History Date:

Saturday, April 27, 2013

  Actual Average Record
Temperature  
Mean Temperature 28 °F 27 °F  
Max Temperature 35 °F 33 °F 60 °F (1940)
Min Temperature 20 °F 21 °F -15 °F (1964)
Degree Days  
Heating Degree Days 37 38  
Month to date heating degree days 1330 1225  
Since 1 July heating degree days 12619 12203  
Cooling Degree Days 0    
Month to date cooling degree days 0  
Year to date cooling degree days 0  
Moisture  
Dew Point 17 °F    
Average Humidity 0    
Maximum Humidity 0    
Minimum Humidity 0    
Precipitation  
Precipitation 0.00 in 0.03 in 0.26 in (1981)
Month to date precipitation 0.29 0.68  
Year to date precipitation 2.45 3.20  
Snow  
Snow 0.00 in 0.10 in 2.60 in (1981)
Month to date snowfall 4.4 6.9  
Since 1 July snowfall 54.8 72.5  
Snow Depth 10.00 in    
Sea Level Pressure  
Sea Level Pressure 30.31 in    
Wind  
Wind Speed 11 mph (NNW)    
Max Wind Speed 25 mph    
Max Gust Speed 32 mph    
Visibility 10 miles    
Events      
T = Trace of Precipitation, MM = Missing Value Source: NWS Daily Summary

Daily Weather History Graph

Daily Weather History Graph

Search for Another Location

Airport or City:

Trip Planner

Search our weather history database for the weather conditions in past years. The results will help you decide how hot, cold, wet, or windy it might be!

Date:

Astronomy

Apr. 27, 2013 Rise Set
Actual Time 6:43 AM AKDT 11:17 PM AKDT
Civil Twilight 5:36 AM AKDT 12:25 AM AKDT
Nautical Twilight 3:31 AM AKDT 2:26 AM AKDT
Astronomical Twilight Sun does not rise Sun does not rise
Moon 1:32 AM AKDT (4/27) 7:29 AM AKDT (4/27)
Length of Visible Light 18h 48m
Length of Day
16h 33m
Waning Gibbous, 94% of the Moon is Illuminated
Apr 27
Waning Gibbous
May 2
Last Quarter
May 9
New
May 17
First Quarter
May 24
Full

Hourly Weather History & Observations

Time (AKDT) Temp. Windchill Dew Point Humidity Pressure Visibility Wind Dir Wind Speed Gust Speed Precip Events Conditions
12:53 AM 23.0 °F 15.8 °F 16.0 °F 74% 30.11 in 10.0 mi West 5.8 mph - N/A   Scattered Clouds
1:53 AM 23.0 °F 11.1 °F 17.1 °F 78% 30.13 in 10.0 mi NNW 12.7 mph 21.9 mph N/A   Scattered Clouds
2:53 AM 24.1 °F 8.7 °F 18.0 °F 77% 30.15 in 10.0 mi North 23.0 mph - N/A   Clear
3:53 AM 24.1 °F 11.5 °F 15.1 °F 69% 30.18 in 10.0 mi North 15.0 mph 18.4 mph N/A   Scattered Clouds
4:53 AM 23.0 °F 11.7 °F 14.0 °F 68% 30.19 in 10.0 mi NNW 11.5 mph - N/A   Partly Cloudy
5:53 AM 21.9 °F 15.7 °F 14.0 °F 72% 30.21 in 10.0 mi WSW 4.6 mph - N/A   Partly Cloudy
6:53 AM 27.0 °F 14.3 °F 12.9 °F 56% 30.22 in 10.0 mi NNW 17.3 mph 27.6 mph N/A   Clear
7:53 AM 23.0 °F 7.6 °F 12.9 °F 65% 30.24 in 10.0 mi North 21.9 mph - N/A   Clear
8:53 AM 24.1 °F 12.0 °F 12.9 °F 62% 30.28 in 10.0 mi North 13.8 mph - N/A   Partly Cloudy
9:53 AM 27.0 °F 18.0 °F 14.0 °F 58% 30.30 in 10.0 mi NNW 9.2 mph 20.7 mph N/A   Partly Cloudy
10:53 AM 27.0 °F 14.7 °F 17.1 °F 66% 30.32 in 10.0 mi NW 16.1 mph 26.5 mph N/A   Partly Cloudy
11:53 AM 28.9 °F 18.6 °F 19.9 °F 69% 30.34 in 10.0 mi North 12.7 mph - N/A   Scattered Clouds
12:53 PM 28.0 °F 17.5 °F 19.9 °F 72% 30.36 in 10.0 mi North 12.7 mph 20.7 mph N/A   Scattered Clouds
1:53 PM 28.0 °F 17.5 °F 19.0 °F 69% 30.35 in 10.0 mi North 12.7 mph - N/A   Partly Cloudy
2:53 PM 30.0 °F 26.5 °F 19.9 °F 66% 30.36 in 10.0 mi ESE 3.5 mph - N/A   Scattered Clouds
3:53 PM 30.9 °F 27.5 °F 21.0 °F 67% 30.38 in 10.0 mi Variable 3.5 mph - N/A   Mostly Cloudy
4:53 PM 30.0 °F 24.1 °F 21.0 °F 69% 30.39 in 10.0 mi WSW 5.8 mph - N/A   Mostly Cloudy
5:53 PM 34.0 °F 28.8 °F 21.0 °F 59% 30.40 in 10.0 mi NNW 5.8 mph - N/A   Scattered Clouds
6:53 PM 32.0 °F 25.6 °F 21.9 °F 66% 30.40 in 10.0 mi North 6.9 mph - N/A   Scattered Clouds
7:53 PM 30.9 °F 20.7 °F 21.0 °F 67% 30.41 in 10.0 mi North 13.8 mph - N/A   Mostly Cloudy
8:53 PM 30.9 °F 20.7 °F 19.9 °F 64% 30.41 in 10.0 mi North 13.8 mph - N/A   Mostly Cloudy
9:53 PM 30.9 °F 23.5 °F 18.0 °F 59% 30.40 in 10.0 mi North 8.1 mph 18.4 mph N/A   Mostly Cloudy
10:53 PM 27.0 °F 19.5 °F 17.1 °F 66% 30.39 in 10.0 mi NW 6.9 mph - N/A   Scattered Clouds
11:53 PM 24.1 °F 13.7 °F 17.1 °F 75% 30.41 in 10.0 mi NW 10.4 mph - N/A   Scattered Clouds